Location: LC-39B
(28.6273°N, 80.6211°W)
Time: 11:47:57
(UTC+00:00)

ISS - Visible Passes

Search period start: 25 February 2018 00:00
Search period end: 07 March 2018 00:00
Orbit: 402 x 407 km, 51.6° (Epoch: 25 February)

Date Brightness Start Highest point End Pass type
(mag) Time Alt. Az. Time Alt. Az. Time Alt. Az.
25 Feb -3.1 10:46:54 10° SSW 10:50:02 53° SE 10:53:14 10° NE visible
26 Feb -1.5 09:57:55 22° SE 09:57:55 22° SE 10:00:31 10° ENE visible
27 Feb -3.4 10:41:21 38° WNW 10:41:57 43° NW 10:45:06 10° NNE visible
28 Feb -1.3 09:51:50 20° NE 09:51:50 20° NE 09:52:57 10° NE visible
01 Mar -1.7 10:34:47 16° NNW 10:34:47 16° NNW 10:36:12 10° N visible
